This demonstration page uses our WeatherBlox Daily Observations layout. Learn more.

38.89511, -77.03637

Hourly Observations for February 25, 2015

Temp ( °F °C ) Dew Point ( °F °C ) Humidity (%) Winds ( mph kmh ) Pressure ( in mb ) Visibility ( mi km ) Precip ( " mm )
12:52 am 00:52 Partly Cloudy 23 -5 10 -12 58 58 SW 3 6 29.83 1010 10 16.09344 0 0
1:52 am 01:52 Mostly Cloudy 23 -5 12 -11 63 63 SSW 3 6 29.83 1010 10 16.09344 0 0
2:52 am 02:52 Mostly Clear 21 -6 12 -11 68 68 SW 5 7 29.83 1010 10 16.09344 0 0
3:52 am 03:52 Mostly Cloudy 23 -5 12 -11 63 63 Calm 29.83 1010 10 16.09344 0 0
4:52 am 04:52 Mostly Clear 21 -6 10 -12 63 63 NNE 3 6 29.85 1011 10 16.09344 0 0
5:52 am 05:52 Partly Cloudy 23 -5 10 -12 58 58 Calm 29.88 1012 10 16.09344 0 0
6:52 am 06:52 Mostly Sunny 23 -5 12 -11 63 63 S 5 7 29.91 1013 10 16.09344 0 0
7:52 am 07:52 Partly Cloudy 23 -5 16 -9 74 74 Calm 29.91 1013 10 16.09344 0 0
8:52 am 08:52 Mostly Cloudy 27 -3 18 -8 69 69 S 9 15 29.94 1014 10 16.09344 0 0
9:52 am 09:52 Mostly Cloudy 30 -1 16 -9 55 55 SSW 7 11 29.94 1014 10 16.09344 0 0
10:52 am 10:52 Mostly Cloudy 34 1 19 -7 56 56 S 9 15 29.97 1015 10 16.09344 0 0
11:52 am 11:52 Mostly Cloudy 36 2 18 -8 48 48 SSE 6 9 30 1016 10 16.09344 0 0
12:52 pm 12:52 Cloudy 39 4 16 -9 39 39 W 10 17 29.97 1015 10 16.09344 0 0
1:52 pm 13:52 Cloudy 39 4 16 -9 39 39 SW 5 7 29.94 1014 10 16.09344 0 0
2:52 pm 14:52 Cloudy 41 5 14 -10 33 33 W 7 11 29.94 1014 10 16.09344 0 0
3:52 pm 15:52 Cloudy 41 5 14 -10 33 33 SSW 3 6 29.94 1014 10 16.09344 0 0
4:52 pm 16:52 Cloudy 41 5 14 -10 33 33 W 6 9 29.94 1014 10 16.09344 0 0
5:52 pm 17:52 Cloudy 41 5 12 -11 31 31 Calm 29.94 1014 10 16.09344 0 0
6:52 pm 18:52 Cloudy 39 4 16 -9 39 39 Calm 29.97 1015 10 16.09344 0 0
7:52 pm 19:52 Cloudy 37 3 19 -7 48 48 E 3 6 29.97 1015 10 16.09344 0 0
8:52 pm 20:52 Cloudy 37 3 19 -7 48 48 SE 3 6 30 1016 10 16.09344 0 0
9:52 pm 21:52 Cloudy 36 2 18 -8 48 48 SE 6 9 29.97 1015 10 16.09344 0 0
10:52 pm 22:52 Cloudy 36 2 18 -8 48 48 SSW 7 11 30.03 1017 10 16.09344 0 0
11:52 pm 23:52 Cloudy 36 2 19 -7 52 52 Calm 29.94 1014 10 16.09344 0 0

Powered by AerisWeather